Location: Unspecified
(0.0000°N, 0.0000°E)
Time: 14:37:29
(UTC+00:00)

STARLINK-34101 - Visible Passes

Search period start: 15 June 2025 00:00
Search period end: 25 June 2025 00:00
Orbit: 443 x 445 km, 43.0° (Epoch: 15 June)

Date Brightness Start Highest point End Pass type
(mag) Time Alt. Az. Time Alt. Az. Time Alt. Az.
21 Jun 4.5 19:42:58 10° SW 19:45:05 33° SW 19:45:05 33° SW visible
22 Jun 3.0 19:02:14 10° SW 19:05:44 69° SE 19:09:14 10° NE visible
23 Jun 3.5 18:21:33 10° SSW 18:24:56 43° SE 18:28:17 10° ENE visible
24 Jun 6.3 19:19:53 10° W 19:21:56 15° NW 19:23:59 10° N visible
